Wind_Speed
34 32 31 31 36 37 35 41 43 41 40 49 72 85 90 83 84 83 79 71 68 65 65 62 58 54 53 47 52 45 43 40 51 51 49 46 43 44 45 44 43 41 41 41
31 29 26 28 26 31 39 43 41 39 33 42 56 71 83 90 87 83 78 79 69 67 65 63 58 57 56 50 46 48 49 44 46 51 50 47 47 47 47 46 45 43 42 42
26 19 29 29 29 34 33 37 40 39 39 43 47 64 76 90 87 86 84 78 71 66 66 64 59 56 56 57 49 45 46 48 46 41 51 46 48 46 46 46 46 45 44 42
20 23 25 29 32 30 30 24 31 41 45 45 38 58 63 81 89 85 78 75 73 70 66 62 60 55 54 53 55 51 47 48 49 38 43 45 45 49 48 48 47 46 44 42
23 28 31 26 23 27 33 24 25 30 41 45 41 48 65 78 87 85 78 76 72 68 63 62 60 55 53 53 53 53 48 47 49 44 44 46 49 48 48 48 47 47 44 42
36 19 20 20 19 24 29 31 24 23 33 46 39 44 61 70 80 80 77 74 69 63 61 59 58 55 52 50 51 52 51 46 43 46 48 48 48 48 45 45 45 46 44 42
32 16 14 11 9 14 15 28 21 25 30 38 35 45 58 60 69 74 75 72 65 63 60 56 56 54 51 48 48 48 48 47 38 35 45 40 44 45 46 45 45 46 44 44
31 11 14 12 4 4 10 22 23 29 27 22 26 44 48 49 60 72 75 71 66 61 60 56 54 51 49 47 47 37 39 43 34 37 40 43 46 44 46 45 45 46 46 46
40 21 16 10 14 4 7 8 8 15 15 13 16 28 25 38 50 61 66 64 66 64 59 57 53 51 48 46 48 39 35 29 32 32 43 43 41 43 43 45 46 47 48 49
40 21 25 23 16 4 14 12 18 22 11 8 6 8 15 32 42 50 56 54 60 60 60 57 53 52 49 46 47 42 39 34 36 39 39 43 44 43 46 46 47 48 49 49
28 21 21 17 16 10 9 11 14 17 15 7 11 14 19 23 33 41 46 50 53 55 55 56 54 49 47 48 45 41 41 45 41 43 43 38 43 44 45 43 47 48 50 51
28 14 16 21 7 10 12 17 3 12 9 12 4 12 13 21 31 34 42 44 45 48 52 53 52 49 46 46 44 38 38 40 42 46 46 42 43 47 47 49 49 50 54 54
28 13 8 5 13 2 5 8 15 10 7 10 2 10 12 20 31 38 37 40 39 41 45 49 51 49 45 45 44 41 36 33 39 44 44 40 44 42 46 51 52 54 60 60
34 24 14 10 10 4 1 4 7 7 7 7 6 17 16 20 33 40 38 37 39 40 44 43 50 51 45 44 43 39 37 38 34 47 51 46 41 47 43 55 56 57 57 58
33 14 13 8 9 12 8 4 8 7 10 11 8 16 21 22 40 43 41 39 39 39 41 46 50 44 39 40 44 38 35 35 39 47 49 49 52 55 53 59 46 49 51 50
31 10 11 11 6 6 4 17 12 11 8 10 3 17 23 22 31 47 41 34 31 32 35 38 42 37 38 39 37 40 37 42 43 46 56 51 51 49 51 49 48 51 50 54
30 12 15 17 18 14 16 14 9 7 6 8 17 26 21 17 27 44 41 33 29 27 23 30 33 38 43 42 37 39 48 44 41 48 48 52 49 52 51 56 53 50 52 49
28 19 17 27 30 29 26 18 16 16 15 14 21 28 27 22 24 35 34 27 24 21 33 26 27 32 39 39 37 43 38 42 42 50 51 53 52 55 60 53 49 47 41 39
27 22 27 29 30 29 24 23 25 27 25 25 26 29 33 28 26 26 23 22 29 29 34 29 30 33 36 48 48 48 55 49 48 44 50 47 44 47 45 44 43 40 40 40
24 24 28 27 33 34 36 47 47 51 54 40 30 29 30 29 27 32 27 25 31 34 36 36 39 34 33 37 47 48 35 37 31 32 33 33 32 31 29 30 29 29 33 38
20 19 27 28 33 34 36 44 48 51 51 52 48 46 40 29 35 36 34 31 31 27 25 24 24 26 25 25 25 25 26 21 17 19 16 15 16 20 26 30 34 36 38 41
23 20 30 30 32 32 33 36 38 50 43 42 42 43 40 38 37 34 28 26 24 21 19 16 14 10 8 6 2 3 5 7 11 13 17 22 25 27 30 34 36 39 43 46
17 21 30 35 35 32 30 33 37 38 36 34 34 36 34 30 29 25 23 20 17 14 12 9 7 6 6 4 5 10 14 18 19 21 23 26 29 31 35 38 41 44 46 47
19 24 27 32 33 34 33 28 26 28 26 25 23 22 22 19 17 15 14 12 10 11 11 12 13 13 13 13 15 16 18 21 25 27 29 33 36 38 39 40 43 46 50 52
20 22 23 25 26 24 22 22 21 20 20 19 18 17 16 14 14 13 12 11 11 12 14 15 16 17 18 20 23 26 28 30 30 32 32 33 36 39 42 45 47 49 50 52
18 18 18 20 20 18 15 16 16 14 17 17 17 14 13 12 13 13 14 15 17 18 18 20 23 25 25 26 27 28 28 30 32 35 38 41 43 44 45 48 53 55 58 60
Wind_Direction
292 281 278 278 274 269 259 253 255 250 248 241 232 224 222 218 220 221 220 223 224 221 221 223 222 221 222 231 229 228 227 243 228 230 235 234 237 243 244 246 248 250 250 253
291 288 288 277 276 275 261 255 255 251 252 249 235 231 225 218 215 218 219 219 220 220 221 222 220 219 220 227 232 228 227 240 237 231 234 235 238 240 244 247 249 250 251 251
302 300 287 282 271 279 271 261 249 248 241 241 243 231 226 218 215 217 213 216 218 221 218 220 221 220 220 225 230 236 236 236 238 244 234 234 239 244 247 251 252 251 251 251
316 297 287 281 275 274 272 277 256 242 239 239 247 239 229 221 215 214 217 217 215 218 219 219 220 220 220 224 229 236 243 239 237 248 234 235 240 242 245 248 249 250 249 249
326 318 302 289 287 261 252 255 256 252 242 241 230 244 217 219 215 211 213 215 215 217 220 217 218 221 221 222 227 235 240 241 237 249 256 231 238 241 246 250 252 251 250 251
336 324 294 291 278 260 253 239 246 257 243 239 228 241 217 219 213 211 211 214 212 215 218 220 220 223 220 226 228 233 239 240 239 245 256 229 237 241 244 247 249 250 251 253
349 331 297 278 274 283 246 228 225 251 237 240 232 233 219 215 213 211 211 213 213 214 216 216 219 222 221 224 228 236 240 239 234 250 237 226 238 241 243 243 246 249 252 255
360 12 335 254 299 235 261 213 234 243 234 233 230 230 214 208 214 212 211 211 213 212 214 215 219 221 222 223 227 237 236 243 250 240 225 233 239 241 242 243 245 249 252 255
359 13 16 335 294 176 232 250 235 228 221 236 252 227 210 200 211 212 214 213 211 211 213 213 220 224 224 223 227 229 232 245 249 250 235 230 239 244 247 246 247 250 253 255
5 27 13 36 57 118 142 187 210 202 206 209 47 141 161 196 204 210 215 213 212 214 213 213 216 220 224 223 227 228 235 236 236 251 254 232 230 241 246 247 250 252 255 259
12 65 41 42 53 103 168 201 183 170 147 84 112 131 153 186 197 199 207 209 209 214 213 214 218 222 224 223 225 229 234 238 239 245 248 246 238 239 248 251 254 254 256 259
28 69 44 47 97 68 62 6 258 332 349 62 118 150 154 165 180 189 202 204 207 210 212 215 217 222 228 228 227 230 237 241 238 243 242 248 252 237 245 251 254 257 261 261
31 47 61 53 33 9 335 273 335 5 3 42 320 172 159 169 176 180 188 195 199 204 210 215 217 220 224 222 222 227 232 241 243 250 249 250 251 246 250 253 256 259 258 262
19 15 9 355 30 24 10 298 344 356 325 314 199 183 180 174 177 176 180 187 197 205 208 210 215 220 220 220 221 229 236 239 246 242 241 252 246 251 248 258 260 261 268 263
14 14 22 54 3 2 351 293 334 292 289 278 237 204 189 194 180 176 177 183 191 200 204 207 212 217 217 219 222 229 232 238 242 251 246 243 241 249 246 258 248 268 264 261
13 35 58 52 7 72 346 310 285 262 264 292 159 156 190 197 180 181 180 182 185 187 194 201 210 213 213 217 225 227 238 239 243 240 252 240 240 237 250 258 260 259 258 257
15 48 68 69 63 81 53 53 70 85 97 101 126 137 134 154 171 177 181 181 180 189 196 198 208 211 208 218 226 234 237 234 244 244 247 247 244 251 252 249 252 246 251 253
24 55 60 58 63 53 40 48 82 88 100 113 130 139 132 126 151 176 177 183 192 201 198 194 205 214 219 227 233 235 234 241 244 243 247 247 250 246 252 251 249 247 250 254
24 47 58 66 69 67 75 88 88 85 83 92 103 125 142 141 149 162 171 179 196 185 184 201 202 208 212 224 233 231 241 244 246 249 243 248 240 242 242 243 245 243 242 251
37 48 59 75 74 66 72 80 87 87 80 86 93 99 112 130 163 146 145 162 186 193 205 203 217 217 230 234 229 240 243 245 227 226 227 225 226 229 239 247 265 289 300 303
47 47 58 77 81 80 85 90 91 86 83 84 85 91 104 137 128 114 115 123 132 144 153 156 165 167 179 189 196 204 209 213 223 227 245 264 282 300 308 309 306 301 298 296
33 58 67 78 81 85 86 96 94 93 95 93 92 92 86 89 91 92 93 92 91 93 97 99 94 89 76 86 163 239 276 293 303 312 311 312 307 301 297 295 296 297 298 297
53 61 56 70 79 82 76 81 85 93 96 93 92 92 90 88 90 82 79 75 67 67 66 71 76 59 36 355 329 332 328 320 310 302 299 296 295 295 296 297 296 295 294 295
47 53 60 67 85 81 74 70 78 85 91 94 95 89 82 80 79 73 61 56 46 37 23 10 8 360 347 335 326 320 313 312 309 305 302 301 300 300 299 299 298 297 297 297
61 55 67 65 68 80 69 55 64 71 71 67 72 71 59 50 51 45 39 30 16 1 354 347 340 331 325 319 315 312 307 305 305 304 303 302 300 298 297 297 296 297 297 297
70 65 78 70 72 62 53 43 46 70 67 58 48 44 40 30 15 2 350 340 335 329 327 324 322 319 316 314 313 312 311 309 307 306 304 302 301 302 303 303 304 303 303 302
Height
5538 5536 5536 5536 5531 5531 5534 5532 5533 5538 5545 5545 5549 5557 5570 5589 5600 5613 5627 5643 5656 5668 5677 5687 5698 5705 5711 5717 5722 5726 5732 5737 5741 5748 5753 5757 5763 5765 5767 5768 5770 5771 5772 5773
5531 5528 5529 5525 5524 5523 5524 5523 5525 5533 5538 5534 5537 5540 5552 5569 5585 5602 5618 5629 5645 5657 5668 5677 5688 5696 5703 5710 5716 5720 5726 5730 5735 5740 5745 5750 5754 5757 5759 5762 5763 5765 5765 5765
5526 5527 5519 5518 5517 5515 5512 5511 5518 5521 5525 5522 5522 5525 5538 5556 5573 5586 5598 5617 5633 5648 5658 5668 5678 5688 5695 5702 5709 5714 5720 5725 5729 5732 5736 5743 5746 5751 5754 5756 5757 5757 5758 5759
5525 5519 5514 5511 5507 5508 5505 5507 5506 5509 5511 5512 5518 5516 5527 5542 5561 5577 5595 5611 5623 5636 5650 5660 5668 5679 5687 5696 5702 5708 5712 5716 5721 5724 5730 5736 5740 5741 5746 5747 5748 5749 5751 5752
5521 5510 5505 5500 5497 5496 5495 5499 5500 5501 5502 5506 5510 5506 5525 5534 5549 5569 5585 5600 5616 5629 5643 5653 5661 5672 5681 5688 5695 5701 5705 5709 5714 5718 5722 5726 5729 5733 5738 5739 5741 5744 5745 5746
5512 5505 5497 5492 5489 5488 5488 5492 5495 5495 5497 5492 5505 5502 5513 5523 5547 5567 5581 5593 5609 5623 5636 5647 5655 5665 5673 5681 5688 5693 5697 5703 5706 5711 5713 5716 5722 5726 5730 5732 5734 5736 5738 5739
5509 5499 5491 5487 5484 5483 5481 5485 5490 5490 5487 5489 5500 5496 5509 5530 5547 5565 5576 5587 5603 5616 5628 5638 5648 5658 5668 5675 5680 5686 5692 5697 5699 5703 5705 5710 5716 5721 5723 5724 5726 5728 5730 5731
5503 5494 5486 5483 5480 5478 5480 5483 5486 5486 5487 5490 5494 5488 5507 5529 5540 5553 5563 5580 5596 5608 5621 5633 5643 5651 5662 5669 5675 5682 5686 5689 5694 5695 5700 5705 5709 5713 5715 5716 5718 5720 5721 5722
5501 5495 5488 5482 5477 5478 5479 5483 5487 5486 5488 5491 5492 5498 5510 5523 5535 5549 5562 5578 5589 5603 5616 5628 5637 5645 5657 5663 5669 5676 5680 5684 5687 5690 5692 5697 5703 5706 5708 5709 5710 5711 5713 5713
5508 5500 5493 5486 5482 5483 5481 5483 5484 5486 5490 5492 5498 5503 5513 5521 5533 5547 5560 5573 5587 5599 5609 5621 5630 5639 5649 5657 5663 5669 5673 5677 5681 5683 5686 5689 5694 5696 5698 5700 5702 5703 5704 5704
5512 5505 5503 5497 5492 5490 5489 5487 5487 5487 5489 5496 5506 5511 5515 5522 5530 5542 5557 5570 5582 5594 5606 5617 5626 5635 5642 5650 5656 5663 5667 5670 5675 5678 5680 5683 5685 5688 5690 5692 5694 5694 5694 5693
5516 5512 5507 5503 5498 5498 5497 5497 5496 5495 5498 5503 5506 5517 5519 5523 5530 5543 5555 5567 5580 5590 5601 5611 5620 5629 5637 5645 5652 5658 5661 5665 5668 5670 5673 5676 5677 5679 5681 5683 5685 5685 5684 5682
5520 5516 5512 5509 5506 5502 5500 5500 5499 5500 5502 5506 5512 5520 5521 5525 5531 5541 5554 5566 5578 5589 5598 5607 5615 5623 5631 5638 5644 5651 5656 5660 5663 5664 5667 5670 5671 5672 5673 5674 5674 5675 5672 5671
5525 5520 5516 5514 5510 5508 5506 5505 5505 5504 5505 5508 5514 5519 5524 5528 5534 5542 5553 5565 5576 5584 5593 5600 5609 5618 5625 5630 5638 5646 5650 5654 5655 5659 5661 5661 5658 5664 5665 5665 5663 5662 5661 5659
5530 5526 5521 5517 5515 5512 5508 5508 5507 5507 5507 5510 5512 5516 5522 5528 5534 5543 5554 5564 5573 5581 5589 5597 5605 5612 5619 5625 5633 5638 5643 5645 5641 5649 5650 5652 5652 5654 5653 5654 5653 5653 5652 5650
5535 5531 5527 5522 5519 5516 5513 5509 5505 5506 5506 5507 5510 5514 5521 5530 5536 5545 5555 5565 5573 5580 5587 5594 5602 5609 5615 5622 5627 5632 5635 5637 5638 5637 5637 5640 5643 5643 5645 5644 5643 5643 5641 5641
5539 5535 5532 5528 5523 5520 5517 5511 5509 5508 5508 5510 5514 5519 5525 5532 5539 5548 5558 5566 5573 5580 5588 5593 5598 5604 5610 5616 5621 5624 5623 5625 5628 5630 5632 5633 5631 5632 5632 5633 5632 5631 5629 5628
5546 5541 5537 5531 5525 5522 5519 5516 5516 5513 5513 5515 5516 5523 5531 5538 5546 5554 5563 5569 5575 5579 5585 5592 5597 5603 5608 5613 5616 5617 5617 5616 5620 5622 5621 5622 5621 5621 5622 5621 5621 5621 5619 5618
5553 5548 5542 5536 5533 5534 5530 5525 5523 5522 5522 5523 5526 5532 5538 5547 5556 5563 5569 5574 5579 5582 5587 5592 5595 5600 5604 5606 5608 5610 5610 5609 5611 5611 5612 5613 5612 5612 5612 5611 5610 5609 5607 5606
5560 5557 5550 5546 5543 5541 5539 5536 5533 5532 5534 5534 5538 5543 5548 5553 5561 5562 5566 5570 5575 5577 5584 5587 5591 5595 5597 5597 5602 5604 5602 5603 5602 5603 5604 5605 5605 5606 5605 5605 5604 5602 5600 5599
5568 5565 5558 5555 5551 5554 5555 5552 5550 5544 5553 5553 5557 5558 5560 5562 5563 5568 5574 5576 5578 5579 5582 5586 5588 5590 5595 5597 5598 5599 5600 5601 5601 5601 5600 5599 5599 5598 5597 5596 5596 5595 5593 5590
5576 5572 5568 5564 5563 5564 5567 5567 5560 5557 5565 5568 5570 5571 5572 5573 5574 5576 5581 5583 5585 5588 5590 5591 5592 5595 5595 5597 5598 5599 5600 5600 5599 5597 5597 5596 5596 5595 5594 5592 5590 5587 5585 5581
5584 5581 5578 5574 5573 5575 5576 5575 5574 5576 5578 5579 5579 5580 5582 5584 5586 5587 5590 5591 5591 5592 5593 5595 5596 5596 5597 5599 5600 5600 5600 5600 5599 5597 5595 5594 5593 5591 5588 5585 5582 5578 5573 5568
5592 5590 5587 5586 5585 5585 5586 5587 5588 5587 5587 5588 5588 5588 5590 5592 5592 5593 5594 5594 5595 5596 5596 5596 5596 5597 5598 5598 5597 5597 5596 5595 5595 5593 5591 5588 5585 5581 5577 5572 5568 5564 5559 5553
5600 5599 5596 5595 5594 5594 5595 5596 5596 5595 5595 5596 5595 5595 5596 5597 5597 5598 5598 5599 5599 5599 5599 5599 5599 5598 5597 5596 5595 5593 5592 5590 5586 5584 5581 5578 5575 5572 5568 5563 5557 5551 5545 5540
5604 5604 5605 5603 5602 5603 5603 5602 5601 5601 5602 5602 5601 5602 5602 5602 5601 5601 5600 5599 5598 5597 5596 5595 5594 5593 5592 5590 5588 5586 5584 5582 5579 5575 5571 5567 5563 5557 5552 5546 5539 5533 5526 5520